owner,sensor,date,latitude,longitude,vertical_datum,sea_water_temperature,qcFlag 
DISL,ioos:station:DISL:PPTA:1,2013-04-01T00:00:00Z,30.2791,-87.5561,0.0,19.78,2 
DISL,ioos:station:DISL:PPTA:1,2013-04-01T00:30:00Z,30.2791,-87.5561,0.0,19.92,2 
DISL,ioos:station:DISL:PPTA:1,2013-04-01T01:00:00Z,30.2791,-87.5561,0.0,20.29,2 
DISL,ioos:station:DISL:PPTA:1,2013-04-01T01:30:00Z,30.2791,-87.5561,0.0,20.41,2 
DISL,ioos:station:DISL:PPTA:1,2013-04-01T02:00:00Z,30.2791,-87.5561,0.0,20.6,2 
DISL,ioos:station:DISL:PPTA:1,2013-04-01T02:30:00Z,30.2791,-87.5561,0.0,20.22,2 
DISL,ioos:station:DISL:PPTA:1,2013-04-01T03:00:00Z,30.2791,-87.5561,0.0,19.88,2 
DISL,ioos:station:DISL:PPTA:1,2013-04-01T03:30:00Z,30.2791,-87.5561,0.0,20.36,2 
DISL,ioos:station:DISL:PPTA:1,2013-04-01T04:00:00Z,30.2791,-87.5561,0.0,19.91,2 
DISL,ioos:station:DISL:PPTA:1,2013-04-01T04:30:00Z,30.2791,-87.5561,0.0,19.92,2 
DISL,ioos:station:DISL:PPTA:1,2013-04-01T05:00:00Z,30.2791,-87.5561,0.0,19.82,2 
DISL,ioos:station:DISL:PPTA:1,2013-04-01T05:30:00Z,30.2791,-87.5561,0.0,19.78,2 
DISL,ioos:station:DISL:PPTA:1,2013-04-01T06:00:00Z,30.2791,-87.5561,0.0,19.8,2 
DISL,ioos:station:DISL:PPTA:1,2013-04-01T06:30:00Z,30.2791,-87.5561,0.0,19.65,2 
DISL,ioos:station:DISL:PPTA:1,2013-04-01T07:00:00Z,30.2791,-87.5561,0.0,19.54,2 
DISL,ioos:station:DISL:PPTA:1,2013-04-01T07:30:00Z,30.2791,-87.5561,0.0,19.55,2 
DISL,ioos:station:DISL:PPTA:1,2013-04-01T08:00:00Z,30.2791,-87.5561,0.0,19.44,2 
DISL,ioos:station:DISL:PPTA:1,2013-04-01T08:30:00Z,30.2791,-87.5561,0.0,19.34,2 
DISL,ioos:station:DISL:PPTA:1,2013-04-01T09:00:00Z,30.2791,-87.5561,0.0,19.76,2 
DISL,ioos:station:DISL:PPTA:1,2013-04-01T09:30:00Z,30.2791,-87.5561,0.0,19.29,2 
DISL,ioos:station:DISL:PPTA:1,2013-04-01T10:00:00Z,30.2791,-87.5561,0.0,19.53,2 
DISL,ioos:station:DISL:PPTA:1,2013-04-01T10:30:00Z,30.2791,-87.5561,0.0,20.0,2 
DISL,ioos:station:DISL:PPTA:1,2013-04-01T11:00:00Z,30.2791,-87.5561,0.0,19.83,2 
DISL,ioos:station:DISL:PPTA:1,2013-04-01T11:30:00Z,30.2791,-87.5561,0.0,20.04,2 
DISL,ioos:station:DISL:PPTA:1,2013-04-01T12:00:00Z,30.2791,-87.5561,0.0,18.88,2 
DISL,ioos:station:DISL:PPTA:1,2013-04-01T12:30:00Z,30.2791,-87.5561,0.0,18.66,2 
DISL,ioos:station:DISL:PPTA:1,2013-04-01T13:00:00Z,30.2791,-87.5561,0.0,18.65,2 
DISL,ioos:station:DISL:PPTA:1,2013-04-01T13:30:00Z,30.2791,-87.5561,0.0,18.72,2 
DISL,ioos:station:DISL:PPTA:1,2013-04-01T14:00:00Z,30.2791,-87.5561,0.0,18.61,2 
DISL,ioos:station:DISL:PPTA:1,2013-04-01T14:30:00Z,30.2791,-87.5561,0.0,18.64,2 
DISL,ioos:station:DISL:PPTA:1,2013-04-01T15:00:00Z,30.2791,-87.5561,0.0,18.68,2 
DISL,ioos:station:DISL:PPTA:1,2013-04-01T15:30:00Z,30.2791,-87.5561,0.0,18.67,2 
DISL,ioos:station:DISL:PPTA:1,2013-04-01T16:00:00Z,30.2791,-87.5561,0.0,18.67,2 
DISL,ioos:station:DISL:PPTA:1,2013-04-01T16:30:00Z,30.2791,-87.5561,0.0,18.78,2 
DISL,ioos:station:DISL:PPTA:1,2013-04-01T17:00:00Z,30.2791,-87.5561,0.0,18.75,2 
DISL,ioos:station:DISL:PPTA:1,2013-04-01T17:30:00Z,30.2791,-87.5561,0.0,18.8,2 
DISL,ioos:station:DISL:PPTA:1,2013-04-01T18:00:00Z,30.2791,-87.5561,0.0,18.87,2 
DISL,ioos:station:DISL:PPTA:1,2013-04-01T18:30:00Z,30.2791,-87.5561,0.0,18.99,2 
DISL,ioos:station:DISL:PPTA:1,2013-04-01T19:00:00Z,30.2791,-87.5561,0.0,18.93,2 
DISL,ioos:station:DISL:PPTA:1,2013-04-01T19:30:00Z,30.2791,-87.5561,0.0,19.17,2 
DISL,ioos:station:DISL:PPTA:1,2013-04-01T20:00:00Z,30.2791,-87.5561,0.0,19.08,2 
DISL,ioos:station:DISL:PPTA:1,2013-04-01T20:30:00Z,30.2791,-87.5561,0.0,19.17,2 
DISL,ioos:station:DISL:PPTA:1,2013-04-01T21:00:00Z,30.2791,-87.5561,0.0,19.4,2 
DISL,ioos:station:DISL:PPTA:1,2013-04-01T21:30:00Z,30.2791,-87.5561,0.0,19.17,2 
DISL,ioos:station:DISL:PPTA:1,2013-04-01T22:00:00Z,30.2791,-87.5561,0.0,19.32,2 
DISL,ioos:station:DISL:PPTA:1,2013-04-01T22:30:00Z,30.2791,-87.5561,0.0,20.74,2 
DISL,ioos:station:DISL:PPTA:1,2013-04-01T23:00:00Z,30.2791,-87.5561,0.0,19.92,2 
DISL,ioos:station:DISL:PPTA:1,2013-04-01T23:30:00Z,30.2791,-87.5561,0.0,19.91,2 
DISL,ioos:station:DISL:PPTA:1,2013-04-02T00:00:00Z,30.2791,-87.5561,0.0,19.88,2 
DISL,ioos:station:DISL:PPTA:1,2013-04-02T00:30:00Z,30.2791,-87.5561,0.0,20.56,2 
DISL,ioos:station:DISL:PPTA:1,2013-04-02T01:00:00Z,30.2791,-87.5561,0.0,20.35,2 
DISL,ioos:station:DISL:PPTA:1,2013-04-02T01:30:00Z,30.2791,-87.5561,0.0,20.75,2 
DISL,ioos:station:DISL:PPTA:1,2013-04-02T02:00:00Z,30.2791,-87.5561,0.0,20.33,2 
DISL,ioos:station:DISL:PPTA:1,2013-04-02T02:30:00Z,30.2791,-87.5561,0.0,20.35,2 
DISL,ioos:station:DISL:PPTA:1,2013-04-02T03:00:00Z,30.2791,-87.5561,0.0,20.31,2 
DISL,ioos:station:DISL:PPTA:1,2013-04-02T03:30:00Z,30.2791,-87.5561,0.0,20.33,2 
DISL,ioos:station:DISL:PPTA:1,2013-04-02T04:00:00Z,30.2791,-87.5561,0.0,20.36,2 
DISL,ioos:station:DISL:PPTA:1,2013-04-02T04:30:00Z,30.2791,-87.5561,0.0,20.4,2 
DISL,ioos:station:DISL:PPTA:1,2013-04-02T05:00:00Z,30.2791,-87.5561,0.0,20.4,2 
DISL,ioos:station:DISL:PPTA:1,2013-04-02T05:30:00Z,30.2791,-87.5561,0.0,20.36,2 
DISL,ioos:station:DISL:PPTA:1,2013-04-02T06:00:00Z,30.2791,-87.5561,0.0,20.32,2 
DISL,ioos:station:DISL:PPTA:1,2013-04-02T06:30:00Z,30.2791,-87.5561,0.0,20.29,2 
DISL,ioos:station:DISL:PPTA:1,2013-04-02T07:00:00Z,30.2791,-87.5561,0.0,20.23,2 
DISL,ioos:station:DISL:PPTA:1,2013-04-02T07:30:00Z,30.2791,-87.5561,0.0,20.21,2 
DISL,ioos:station:DISL:PPTA:1,2013-04-02T08:00:00Z,30.2791,-87.5561,0.0,20.21,2 
DISL,ioos:station:DISL:PPTA:1,2013-04-02T08:30:00Z,30.2791,-87.5561,0.0,20.2,2 
DISL,ioos:station:DISL:PPTA:1,2013-04-02T09:00:00Z,30.2791,-87.5561,0.0,20.23,2 
DISL,ioos:station:DISL:PPTA:1,2013-04-02T09:30:00Z,30.2791,-87.5561,0.0,20.04,2 
DISL,ioos:station:DISL:PPTA:1,2013-04-02T10:00:00Z,30.2791,-87.5561,0.0,19.96,2 
DISL,ioos:station:DISL:PPTA:1,2013-04-02T10:30:00Z,30.2791,-87.5561,0.0,20.05,2 
DISL,ioos:station:DISL:PPTA:1,2013-04-02T11:00:00Z,30.2791,-87.5561,0.0,19.89,2 
DISL,ioos:station:DISL:PPTA:1,2013-04-02T11:30:00Z,30.2791,-87.5561,0.0,19.81,2 
DISL,ioos:station:DISL:PPTA:1,2013-04-02T12:00:00Z,30.2791,-87.5561,0.0,19.92,2 
DISL,ioos:station:DISL:PPTA:1,2013-04-02T12:30:00Z,30.2791,-87.5561,0.0,20.13,2 
DISL,ioos:station:DISL:PPTA:1,2013-04-02T13:00:00Z,30.2791,-87.5561,0.0,19.14,2 
DISL,ioos:station:DISL:PPTA:1,2013-04-02T13:30:00Z,30.2791,-87.5561,0.0,19.23,2 
DISL,ioos:station:DISL:PPTA:1,2013-04-02T14:00:00Z,30.2791,-87.5561,0.0,18.89,2 
DISL,ioos:station:DISL:PPTA:1,2013-04-02T14:30:00Z,30.2791,-87.5561,0.0,18.91,2 
DISL,ioos:station:DISL:PPTA:1,2013-04-02T15:00:00Z,30.2791,-87.5561,0.0,18.91,2 
DISL,ioos:station:DISL:PPTA:1,2013-04-02T15:30:00Z,30.2791,-87.5561,0.0,18.97,2 
DISL,ioos:station:DISL:PPTA:1,2013-04-02T16:00:00Z,30.2791,-87.5561,0.0,18.97,2 
DISL,ioos:station:DISL:PPTA:1,2013-04-02T16:30:00Z,30.2791,-87.5561,0.0,19.06,2 
DISL,ioos:station:DISL:PPTA:1,2013-04-02T17:00:00Z,30.2791,-87.5561,0.0,19.04,2 
DISL,ioos:station:DISL:PPTA:1,2013-04-02T17:30:00Z,30.2791,-87.5561,0.0,19.13,2 
DISL,ioos:station:DISL:PPTA:1,2013-04-02T18:00:00Z,30.2791,-87.5561,0.0,19.28,2 
DISL,ioos:station:DISL:PPTA:1,2013-04-02T18:30:00Z,30.2791,-87.5561,0.0,19.33,2 
DISL,ioos:station:DISL:PPTA:1,2013-04-02T19:00:00Z,30.2791,-87.5561,0.0,19.5,2 
DISL,ioos:station:DISL:PPTA:1,2013-04-02T19:30:00Z,30.2791,-87.5561,0.0,19.53,2 
DISL,ioos:station:DISL:PPTA:1,2013-04-02T20:00:00Z,30.2791,-87.5561,0.0,19.65,2 
DISL,ioos:station:DISL:PPTA:1,2013-04-02T20:30:00Z,30.2791,-87.5561,0.0,19.71,2 
DISL,ioos:station:DISL:PPTA:1,2013-04-02T21:00:00Z,30.2791,-87.5561,0.0,19.87,2 
DISL,ioos:station:DISL:PPTA:1,2013-04-02T21:30:00Z,30.2791,-87.5561,0.0,19.92,2 
DISL,ioos:station:DISL:PPTA:1,2013-04-02T22:00:00Z,30.2791,-87.5561,0.0,20.0,2 
DISL,ioos:station:DISL:PPTA:1,2013-04-02T22:30:00Z,30.2791,-87.5561,0.0,19.97,2 
DISL,ioos:station:DISL:PPTA:1,2013-04-02T23:00:00Z,30.2791,-87.5561,0.0,19.95,2 
DISL,ioos:station:DISL:PPTA:1,2013-04-02T23:30:00Z,30.2791,-87.5561,0.0,19.95,2 
DISL,ioos:station:DISL:PPTA:1,2013-04-03T00:00:00Z,30.2791,-87.5561,0.0,20.02,2 
DISL,ioos:station:DISL:PPTA:1,2013-04-03T00:30:00Z,30.2791,-87.5561,0.0,20.61,2 
DISL,ioos:station:DISL:PPTA:1,2013-04-03T01:00:00Z,30.2791,-87.5561,0.0,20.32,2 
DISL,ioos:station:DISL:PPTA:1,2013-04-03T01:30:00Z,30.2791,-87.5561,0.0,19.96,2 
DISL,ioos:station:DISL:PPTA:1,2013-04-03T02:00:00Z,30.2791,-87.5561,0.0,19.84,2 
DISL,ioos:station:DISL:PPTA:1,2013-04-03T02:30:00Z,30.2791,-87.5561,0.0,20.1,2 
DISL,ioos:station:DISL:PPTA:1,2013-04-03T03:00:00Z,30.2791,-87.5561,0.0,20.18,2 
DISL,ioos:station:DISL:PPTA:1,2013-04-03T03:30:00Z,30.2791,-87.5561,0.0,20.43,2 
DISL,ioos:station:DISL:PPTA:1,2013-04-03T04:00:00Z,30.2791,-87.5561,0.0,20.4,2 
DISL,ioos:station:DISL:PPTA:1,2013-04-03T04:30:00Z,30.2791,-87.5561,0.0,20.44,2 
DISL,ioos:station:DISL:PPTA:1,2013-04-03T05:00:00Z,30.2791,-87.5561,0.0,20.43,2 
DISL,ioos:station:DISL:PPTA:1,2013-04-03T05:30:00Z,30.2791,-87.5561,0.0,20.49,2 
DISL,ioos:station:DISL:PPTA:1,2013-04-03T06:00:00Z,30.2791,-87.5561,0.0,20.5,2 
DISL,ioos:station:DISL:PPTA:1,2013-04-03T06:30:00Z,30.2791,-87.5561,0.0,20.55,2 
DISL,ioos:station:DISL:PPTA:1,2013-04-03T07:00:00Z,30.2791,-87.5561,0.0,20.68,2 
DISL,ioos:station:DISL:PPTA:1,2013-04-03T07:30:00Z,30.2791,-87.5561,0.0,20.72,2 
DISL,ioos:station:DISL:PPTA:1,2013-04-03T08:00:00Z,30.2791,-87.5561,0.0,20.65,2 
DISL,ioos:station:DISL:PPTA:1,2013-04-03T08:30:00Z,30.2791,-87.5561,0.0,20.74,2 
DISL,ioos:station:DISL:PPTA:1,2013-04-03T09:00:00Z,30.2791,-87.5561,0.0,20.73,2 
DISL,ioos:station:DISL:PPTA:1,2013-04-03T09:30:00Z,30.2791,-87.5561,0.0,20.69,2 
DISL,ioos:station:DISL:PPTA:1,2013-04-03T10:00:00Z,30.2791,-87.5561,0.0,20.7,2 
DISL,ioos:station:DISL:PPTA:1,2013-04-03T10:30:00Z,30.2791,-87.5561,0.0,20.67,2 
DISL,ioos:station:DISL:PPTA:1,2013-04-03T11:00:00Z,30.2791,-87.5561,0.0,20.63,2 
DISL,ioos:station:DISL:PPTA:1,2013-04-03T11:30:00Z,30.2791,-87.5561,0.0,20.65,2 
DISL,ioos:station:DISL:PPTA:1,2013-04-03T12:00:00Z,30.2791,-87.5561,0.0,20.71,2 
DISL,ioos:station:DISL:PPTA:1,2013-04-03T12:30:00Z,30.2791,-87.5561,0.0,20.71,2 
DISL,ioos:station:DISL:PPTA:1,2013-04-03T13:00:00Z,30.2791,-87.5561,0.0,20.63,2 
DISL,ioos:station:DISL:PPTA:1,2013-04-03T13:30:00Z,30.2791,-87.5561,0.0,20.01,2 
DISL,ioos:station:DISL:PPTA:1,2013-04-03T14:00:00Z,30.2791,-87.5561,0.0,20.04,2 
DISL,ioos:station:DISL:PPTA:1,2013-04-03T14:30:00Z,30.2791,-87.5561,0.0,20.02,2 
DISL,ioos:station:DISL:PPTA:1,2013-04-03T15:00:00Z,30.2791,-87.5561,0.0,19.86,2 
DISL,ioos:station:DISL:PPTA:1,2013-04-03T15:30:00Z,30.2791,-87.5561,0.0,19.87,2 
DISL,ioos:station:DISL:PPTA:1,2013-04-03T16:00:00Z,30.2791,-87.5561,0.0,19.87,2 
DISL,ioos:station:DISL:PPTA:1,2013-04-03T16:30:00Z,30.2791,-87.5561,0.0,19.84,2 
DISL,ioos:station:DISL:PPTA:1,2013-04-03T17:00:00Z,30.2791,-87.5561,0.0,19.75,2 
DISL,ioos:station:DISL:PPTA:1,2013-04-03T17:30:00Z,30.2791,-87.5561,0.0,19.72,2 
DISL,ioos:station:DISL:PPTA:1,2013-04-03T18:00:00Z,30.2791,-87.5561,0.0,19.68,2 
DISL,ioos:station:DISL:PPTA:1,2013-04-03T18:30:00Z,30.2791,-87.5561,0.0,19.42,2 
DISL,ioos:station:DISL:PPTA:1,2013-04-03T19:00:00Z,30.2791,-87.5561,0.0,19.59,2 
DISL,ioos:station:DISL:PPTA:1,2013-04-03T19:30:00Z,30.2791,-87.5561,0.0,19.58,2 
DISL,ioos:station:DISL:PPTA:1,2013-04-03T20:00:00Z,30.2791,-87.5561,0.0,19.69,2 
DISL,ioos:station:DISL:PPTA:1,2013-04-03T20:30:00Z,30.2791,-87.5561,0.0,19.42,2 
DISL,ioos:station:DISL:PPTA:1,2013-04-03T21:00:00Z,30.2791,-87.5561,0.0,19.45,2 
DISL,ioos:station:DISL:PPTA:1,2013-04-03T21:30:00Z,30.2791,-87.5561,0.0,19.48,2 
DISL,ioos:station:DISL:PPTA:1,2013-04-03T22:00:00Z,30.2791,-87.5561,0.0,19.44,2 
DISL,ioos:station:DISL:PPTA:1,2013-04-03T22:30:00Z,30.2791,-87.5561,0.0,19.5,2 
DISL,ioos:station:DISL:PPTA:1,2013-04-03T23:00:00Z,30.2791,-87.5561,0.0,19.54,2 
DISL,ioos:station:DISL:PPTA:1,2013-04-03T23:30:00Z,30.2791,-87.5561,0.0,19.59,2 
DISL,ioos:station:DISL:PPTA:1,2013-04-04T00:00:00Z,30.2791,-87.5561,0.0,19.51,2 
DISL,ioos:station:DISL:PPTA:1,2013-04-04T00:30:00Z,30.2791,-87.5561,0.0,19.46,2 
DISL,ioos:station:DISL:PPTA:1,2013-04-04T01:00:00Z,30.2791,-87.5561,0.0,19.5,2 
DISL,ioos:station:DISL:PPTA:1,2013-04-04T01:30:00Z,30.2791,-87.5561,0.0,19.42,2 
DISL,ioos:station:DISL:PPTA:1,2013-04-04T02:00:00Z,30.2791,-87.5561,0.0,19.4,2 
DISL,ioos:station:DISL:PPTA:1,2013-04-04T02:30:00Z,30.2791,-87.5561,0.0,19.42,2 
DISL,ioos:station:DISL:PPTA:1,2013-04-04T03:00:00Z,30.2791,-87.5561,0.0,19.38,2 
DISL,ioos:station:DISL:PPTA:1,2013-04-04T03:30:00Z,30.2791,-87.5561,0.0,19.36,2 
DISL,ioos:station:DISL:PPTA:1,2013-04-04T04:00:00Z,30.2791,-87.5561,0.0,19.4,2 
DISL,ioos:station:DISL:PPTA:1,2013-04-04T04:30:00Z,30.2791,-87.5561,0.0,19.35,2 
DISL,ioos:station:DISL:PPTA:1,2013-04-04T05:00:00Z,30.2791,-87.5561,0.0,19.33,2 
DISL,ioos:station:DISL:PPTA:1,2013-04-04T05:30:00Z,30.2791,-87.5561,0.0,19.17,2 
DISL,ioos:station:DISL:PPTA:1,2013-04-04T06:00:00Z,30.2791,-87.5561,0.0,19.09,2 
DISL,ioos:station:DISL:PPTA:1,2013-04-04T06:30:00Z,30.2791,-87.5561,0.0,19.14,2 
DISL,ioos:station:DISL:PPTA:1,2013-04-04T07:00:00Z,30.2791,-87.5561,0.0,19.1,2 
DISL,ioos:station:DISL:PPTA:1,2013-04-04T07:30:00Z,30.2791,-87.5561,0.0,19.05,2 
DISL,ioos:station:DISL:PPTA:1,2013-04-04T08:00:00Z,30.2791,-87.5561,0.0,19.03,2 
DISL,ioos:station:DISL:PPTA:1,2013-04-04T08:30:00Z,30.2791,-87.5561,0.0,19.0,2 
DISL,ioos:station:DISL:PPTA:1,2013-04-04T09:00:00Z,30.2791,-87.5561,0.0,19.02,2 
DISL,ioos:station:DISL:PPTA:1,2013-04-04T09:30:00Z,30.2791,-87.5561,0.0,19.03,2 
DISL,ioos:station:DISL:PPTA:1,2013-04-04T10:00:00Z,30.2791,-87.5561,0.0,19.03,2 
DISL,ioos:station:DISL:PPTA:1,2013-04-04T10:30:00Z,30.2791,-87.5561,0.0,19.01,2 
DISL,ioos:station:DISL:PPTA:1,2013-04-04T11:00:00Z,30.2791,-87.5561,0.0,19.11,2 
DISL,ioos:station:DISL:PPTA:1,2013-04-04T11:30:00Z,30.2791,-87.5561,0.0,18.98,2 
DISL,ioos:station:DISL:PPTA:1,2013-04-04T12:00:00Z,30.2791,-87.5561,0.0,19.04,2 
DISL,ioos:station:DISL:PPTA:1,2013-04-04T12:30:00Z,30.2791,-87.5561,0.0,19.17,2 
DISL,ioos:station:DISL:PPTA:1,2013-04-04T13:00:00Z,30.2791,-87.5561,0.0,19.06,2 
DISL,ioos:station:DISL:PPTA:1,2013-04-04T13:30:00Z,30.2791,-87.5561,0.0,19.02,2 
DISL,ioos:station:DISL:PPTA:1,2013-04-04T14:00:00Z,30.2791,-87.5561,0.0,19.11,2 
DISL,ioos:station:DISL:PPTA:1,2013-04-04T14:30:00Z,30.2791,-87.5561,0.0,19.19,2 
DISL,ioos:station:DISL:PPTA:1,2013-04-04T15:00:00Z,30.2791,-87.5561,0.0,19.13,2 
DISL,ioos:station:DISL:PPTA:1,2013-04-04T15:30:00Z,30.2791,-87.5561,0.0,19.27,2 
DISL,ioos:station:DISL:PPTA:1,2013-04-04T16:00:00Z,30.2791,-87.5561,0.0,19.31,2 
DISL,ioos:station:DISL:PPTA:1,2013-04-04T16:30:00Z,30.2791,-87.5561,0.0,19.34,2 
DISL,ioos:station:DISL:PPTA:1,2013-04-04T17:00:00Z,30.2791,-87.5561,0.0,19.35,2 
DISL,ioos:station:DISL:PPTA:1,2013-04-04T17:30:00Z,30.2791,-87.5561,0.0,19.38,2 
DISL,ioos:station:DISL:PPTA:1,2013-04-04T18:00:00Z,30.2791,-87.5561,0.0,19.41,2 
DISL,ioos:station:DISL:PPTA:1,2013-04-04T18:30:00Z,30.2791,-87.5561,0.0,19.47,2 
DISL,ioos:station:DISL:PPTA:1,2013-04-04T19:00:00Z,30.2791,-87.5561,0.0,19.51,2 
DISL,ioos:station:DISL:PPTA:1,2013-04-04T19:30:00Z,30.2791,-87.5561,0.0,19.54,2 
DISL,ioos:station:DISL:PPTA:1,2013-04-04T20:00:00Z,30.2791,-87.5561,0.0,19.58,2 
DISL,ioos:station:DISL:PPTA:1,2013-04-04T20:30:00Z,30.2791,-87.5561,0.0,19.75,2 
DISL,ioos:station:DISL:PPTA:1,2013-04-04T21:00:00Z,30.2791,-87.5561,0.0,19.68,2 
DISL,ioos:station:DISL:PPTA:1,2013-04-04T21:30:00Z,30.2791,-87.5561,0.0,19.76,2 
DISL,ioos:station:DISL:PPTA:1,2013-04-04T22:00:00Z,30.2791,-87.5561,0.0,19.75,2 
DISL,ioos:station:DISL:PPTA:1,2013-04-04T22:30:00Z,30.2791,-87.5561,0.0,19.83,2 
DISL,ioos:station:DISL:PPTA:1,2013-04-04T23:00:00Z,30.2791,-87.5561,0.0,19.82,2 
DISL,ioos:station:DISL:PPTA:1,2013-04-04T23:30:00Z,30.2791,-87.5561,0.0,19.81,2 
DISL,ioos:station:DISL:PPTA:1,2013-04-05T00:00:00Z,30.2791,-87.5561,0.0,19.77,2 
DISL,ioos:station:DISL:PPTA:1,2013-04-05T00:30:00Z,30.2791,-87.5561,0.0,19.76,2 
DISL,ioos:station:DISL:PPTA:1,2013-04-05T01:00:00Z,30.2791,-87.5561,0.0,19.75,2 
DISL,ioos:station:DISL:PPTA:1,2013-04-05T01:30:00Z,30.2791,-87.5561,0.0,19.73,2 
DISL,ioos:station:DISL:PPTA:1,2013-04-05T02:00:00Z,30.2791,-87.5561,0.0,19.73,2 
DISL,ioos:station:DISL:PPTA:1,2013-04-05T02:30:00Z,30.2791,-87.5561,0.0,19.8,2 
DISL,ioos:station:DISL:PPTA:1,2013-04-05T03:00:00Z,30.2791,-87.5561,0.0,19.69,2 
DISL,ioos:station:DISL:PPTA:1,2013-04-05T03:30:00Z,30.2791,-87.5561,0.0,19.69,2 
DISL,ioos:station:DISL:PPTA:1,2013-04-05T04:00:00Z,30.2791,-87.5561,0.0,19.57,2 
DISL,ioos:station:DISL:PPTA:1,2013-04-05T04:30:00Z,30.2791,-87.5561,0.0,19.55,2 
DISL,ioos:station:DISL:PPTA:1,2013-04-05T05:00:00Z,30.2791,-87.5561,0.0,19.41,2 
DISL,ioos:station:DISL:PPTA:1,2013-04-05T05:30:00Z,30.2791,-87.5561,0.0,19.48,2 
DISL,ioos:station:DISL:PPTA:1,2013-04-05T06:00:00Z,30.2791,-87.5561,0.0,19.29,2 
DISL,ioos:station:DISL:PPTA:1,2013-04-05T06:30:00Z,30.2791,-87.5561,0.0,19.32,2 
DISL,ioos:station:DISL:PPTA:1,2013-04-05T07:00:00Z,30.2791,-87.5561,0.0,19.48,2 
DISL,ioos:station:DISL:PPTA:1,2013-04-05T07:30:00Z,30.2791,-87.5561,0.0,19.35,2 
DISL,ioos:station:DISL:PPTA:1,2013-04-05T08:00:00Z,30.2791,-87.5561,0.0,19.29,2 
DISL,ioos:station:DISL:PPTA:1,2013-04-05T08:30:00Z,30.2791,-87.5561,0.0,19.25,2 
DISL,ioos:station:DISL:PPTA:1,2013-04-05T09:00:00Z,30.2791,-87.5561,0.0,19.16,2 
DISL,ioos:station:DISL:PPTA:1,2013-04-05T09:30:00Z,30.2791,-87.5561,0.0,19.25,2 
DISL,ioos:station:DISL:PPTA:1,2013-04-05T10:00:00Z,30.2791,-87.5561,0.0,18.93,2 
DISL,ioos:station:DISL:PPTA:1,2013-04-05T10:30:00Z,30.2791,-87.5561,0.0,18.84,2 
DISL,ioos:station:DISL:PPTA:1,2013-04-05T11:00:00Z,30.2791,-87.5561,0.0,19.1,2 
DISL,ioos:station:DISL:PPTA:1,2013-04-05T11:30:00Z,30.2791,-87.5561,0.0,18.94,2 
DISL,ioos:station:DISL:PPTA:1,2013-04-05T12:00:00Z,30.2791,-87.5561,0.0,18.7,2 
DISL,ioos:station:DISL:PPTA:1,2013-04-05T12:30:00Z,30.2791,-87.5561,0.0,18.88,2 
DISL,ioos:station:DISL:PPTA:1,2013-04-05T13:00:00Z,30.2791,-87.5561,0.0,18.87,2 
DISL,ioos:station:DISL:PPTA:1,2013-04-05T13:30:00Z,30.2791,-87.5561,0.0,18.91,2 
DISL,ioos:station:DISL:PPTA:1,2013-04-05T14:00:00Z,30.2791,-87.5561,0.0,18.91,2 
DISL,ioos:station:DISL:PPTA:1,2013-04-05T14:30:00Z,30.2791,-87.5561,0.0,18.84,2 
DISL,ioos:station:DISL:PPTA:1,2013-04-05T15:00:00Z,30.2791,-87.5561,0.0,18.7,2 
DISL,ioos:station:DISL:PPTA:1,2013-04-05T15:30:00Z,30.2791,-87.5561,0.0,18.67,2 
DISL,ioos:station:DISL:PPTA:1,2013-04-05T16:00:00Z,30.2791,-87.5561,0.0,18.65,2 
DISL,ioos:station:DISL:PPTA:1,2013-04-05T16:30:00Z,30.2791,-87.5561,0.0,18.61,2 
DISL,ioos:station:DISL:PPTA:1,2013-04-05T17:00:00Z,30.2791,-87.5561,0.0,18.66,2 
DISL,ioos:station:DISL:PPTA:1,2013-04-05T17:30:00Z,30.2791,-87.5561,0.0,18.72,2 
DISL,ioos:station:DISL:PPTA:1,2013-04-05T18:00:00Z,30.2791,-87.5561,0.0,18.81,2 
DISL,ioos:station:DISL:PPTA:1,2013-04-05T18:30:00Z,30.2791,-87.5561,0.0,18.82,2 
DISL,ioos:station:DISL:PPTA:1,2013-04-05T19:00:00Z,30.2791,-87.5561,0.0,19.01,2 
DISL,ioos:station:DISL:PPTA:1,2013-04-05T19:30:00Z,30.2791,-87.5561,0.0,19.21,2 
DISL,ioos:station:DISL:PPTA:1,2013-04-05T20:00:00Z,30.2791,-87.5561,0.0,19.27,2 
DISL,ioos:station:DISL:PPTA:1,2013-04-05T20:30:00Z,30.2791,-87.5561,0.0,19.3,2 
DISL,ioos:station:DISL:PPTA:1,2013-04-05T21:00:00Z,30.2791,-87.5561,0.0,19.34,2 
DISL,ioos:station:DISL:PPTA:1,2013-04-05T21:30:00Z,30.2791,-87.5561,0.0,19.33,2 
DISL,ioos:station:DISL:PPTA:1,2013-04-05T22:00:00Z,30.2791,-87.5561,0.0,19.37,2 
DISL,ioos:station:DISL:PPTA:1,2013-04-05T22:30:00Z,30.2791,-87.5561,0.0,19.4,2 
DISL,ioos:station:DISL:PPTA:1,2013-04-05T23:00:00Z,30.2791,-87.5561,0.0,19.4,2 
DISL,ioos:station:DISL:PPTA:1,2013-04-05T23:30:00Z,30.2791,-87.5561,0.0,19.42,2 
DISL,ioos:station:DISL:PPTA:1,2013-04-06T00:00:00Z,30.2791,-87.5561,0.0,19.41,2 
DISL,ioos:station:DISL:PPTA:1,2013-04-06T00:30:00Z,30.2791,-87.5561,0.0,19.4,2 
DISL,ioos:station:DISL:PPTA:1,2013-04-06T01:00:00Z,30.2791,-87.5561,0.0,19.36,2 
DISL,ioos:station:DISL:PPTA:1,2013-04-06T01:30:00Z,30.2791,-87.5561,0.0,19.33,2 
DISL,ioos:station:DISL:PPTA:1,2013-04-06T02:00:00Z,30.2791,-87.5561,0.0,19.33,2 
DISL,ioos:station:DISL:PPTA:1,2013-04-06T02:30:00Z,30.2791,-87.5561,0.0,19.32,2 
DISL,ioos:station:DISL:PPTA:1,2013-04-06T03:00:00Z,30.2791,-87.5561,0.0,19.29,2 
DISL,ioos:station:DISL:PPTA:1,2013-04-06T03:30:00Z,30.2791,-87.5561,0.0,18.79,2 
DISL,ioos:station:DISL:PPTA:1,2013-04-06T04:00:00Z,30.2791,-87.5561,0.0,18.29,2 
DISL,ioos:station:DISL:PPTA:1,2013-04-06T04:30:00Z,30.2791,-87.5561,0.0,18.71,2 
DISL,ioos:station:DISL:PPTA:1,2013-04-06T05:00:00Z,30.2791,-87.5561,0.0,18.83,2 
DISL,ioos:station:DISL:PPTA:1,2013-04-06T05:30:00Z,30.2791,-87.5561,0.0,19.22,2 
DISL,ioos:station:DISL:PPTA:1,2013-04-06T06:00:00Z,30.2791,-87.5561,0.0,18.53,2 
DISL,ioos:station:DISL:PPTA:1,2013-04-06T06:30:00Z,30.2791,-87.5561,0.0,18.46,2 
DISL,ioos:station:DISL:PPTA:1,2013-04-06T07:00:00Z,30.2791,-87.5561,0.0,18.33,2 
DISL,ioos:station:DISL:PPTA:1,2013-04-06T07:30:00Z,30.2791,-87.5561,0.0,18.32,2 
DISL,ioos:station:DISL:PPTA:1,2013-04-06T08:00:00Z,30.2791,-87.5561,0.0,18.3,2 
DISL,ioos:station:DISL:PPTA:1,2013-04-06T08:30:00Z,30.2791,-87.5561,0.0,18.34,2 
DISL,ioos:station:DISL:PPTA:1,2013-04-06T09:00:00Z,30.2791,-87.5561,0.0,18.18,2 
DISL,ioos:station:DISL:PPTA:1,2013-04-06T09:30:00Z,30.2791,-87.5561,0.0,18.11,2 
DISL,ioos:station:DISL:PPTA:1,2013-04-06T10:00:00Z,30.2791,-87.5561,0.0,18.04,2 
DISL,ioos:station:DISL:PPTA:1,2013-04-06T10:30:00Z,30.2791,-87.5561,0.0,18.02,2 
DISL,ioos:station:DISL:PPTA:1,2013-04-06T11:00:00Z,30.2791,-87.5561,0.0,17.9,2 
DISL,ioos:station:DISL:PPTA:1,2013-04-06T11:30:00Z,30.2791,-87.5561,0.0,17.76,2 
DISL,ioos:station:DISL:PPTA:1,2013-04-06T12:00:00Z,30.2791,-87.5561,0.0,17.8,2 
DISL,ioos:station:DISL:PPTA:1,2013-04-06T12:30:00Z,30.2791,-87.5561,0.0,17.93,2 
DISL,ioos:station:DISL:PPTA:1,2013-04-06T13:00:00Z,30.2791,-87.5561,0.0,17.86,2 
DISL,ioos:station:DISL:PPTA:1,2013-04-06T13:30:00Z,30.2791,-87.5561,0.0,18.24,2 
DISL,ioos:station:DISL:PPTA:1,2013-04-06T14:00:00Z,30.2791,-87.5561,0.0,18.42,2 
DISL,ioos:station:DISL:PPTA:1,2013-04-06T14:30:00Z,30.2791,-87.5561,0.0,18.8,2 
DISL,ioos:station:DISL:PPTA:1,2013-04-06T15:00:00Z,30.2791,-87.5561,0.0,18.92,2 
DISL,ioos:station:DISL:PPTA:1,2013-04-06T15:30:00Z,30.2791,-87.5561,0.0,19.02,2 
DISL,ioos:station:DISL:PPTA:1,2013-04-06T16:00:00Z,30.2791,-87.5561,0.0,19.02,2 
DISL,ioos:station:DISL:PPTA:1,2013-04-06T16:30:00Z,30.2791,-87.5561,0.0,19.12,2 
DISL,ioos:station:DISL:PPTA:1,2013-04-06T17:00:00Z,30.2791,-87.5561,0.0,19.16,2 
DISL,ioos:station:DISL:PPTA:1,2013-04-06T17:30:00Z,30.2791,-87.5561,0.0,19.28,2 
DISL,ioos:station:DISL:PPTA:1,2013-04-06T18:00:00Z,30.2791,-87.5561,0.0,19.35,2 
DISL,ioos:station:DISL:PPTA:1,2013-04-06T18:30:00Z,30.2791,-87.5561,0.0,19.33,2 
DISL,ioos:station:DISL:PPTA:1,2013-04-06T19:00:00Z,30.2791,-87.5561,0.0,19.5,2 
DISL,ioos:station:DISL:PPTA:1,2013-04-06T19:30:00Z,30.2791,-87.5561,0.0,19.46,2 
DISL,ioos:station:DISL:PPTA:1,2013-04-06T20:00:00Z,30.2791,-87.5561,0.0,19.72,2 
DISL,ioos:station:DISL:PPTA:1,2013-04-06T20:30:00Z,30.2791,-87.5561,0.0,19.67,2 
DISL,ioos:station:DISL:PPTA:1,2013-04-06T21:00:00Z,30.2791,-87.5561,0.0,19.78,2 
DISL,ioos:station:DISL:PPTA:1,2013-04-06T21:30:00Z,30.2791,-87.5561,0.0,19.9,2 
DISL,ioos:station:DISL:PPTA:1,2013-04-06T22:00:00Z,30.2791,-87.5561,0.0,19.93,2 
DISL,ioos:station:DISL:PPTA:1,2013-04-06T22:30:00Z,30.2791,-87.5561,0.0,19.99,2 
DISL,ioos:station:DISL:PPTA:1,2013-04-06T23:00:00Z,30.2791,-87.5561,0.0,19.93,2 
DISL,ioos:station:DISL:PPTA:1,2013-04-06T23:30:00Z,30.2791,-87.5561,0.0,19.99,2 
DISL,ioos:station:DISL:PPTA:1,2013-04-07T00:00:00Z,30.2791,-87.5561,0.0,19.98,2 
DISL,ioos:station:DISL:PPTA:1,2013-04-07T00:30:00Z,30.2791,-87.5561,0.0,19.99,2 
DISL,ioos:station:DISL:PPTA:1,2013-04-07T01:00:00Z,30.2791,-87.5561,0.0,19.97,2 
DISL,ioos:station:DISL:PPTA:1,2013-04-07T01:30:00Z,30.2791,-87.5561,0.0,19.9,2 
DISL,ioos:station:DISL:PPTA:1,2013-04-07T02:00:00Z,30.2791,-87.5561,0.0,19.88,2 
DISL,ioos:station:DISL:PPTA:1,2013-04-07T02:30:00Z,30.2791,-87.5561,0.0,19.82,2 
DISL,ioos:station:DISL:PPTA:1,2013-04-07T03:00:00Z,30.2791,-87.5561,0.0,19.73,2 